Temperature
17 17 18 18 18 18 18 18 18 18 18 18 18 18 18 18 18 18 18 17 17 17 17 17 17 17 17 17 17 18 18 17 17 18 18 18 18 17 18 18 18 17 17
17 17 17 18 18 18 18 18 18 18 18 18 18 18 18 18 18 18 18 17 17 17 17 17 17 17 17 17 17 17 17 17 17 17 17 17 17 17 17 17 17 17 17
17 17 17 17 18 18 18 18 17 17 17 18 18 18 18 18 18 18 18 18 18 17 17 17 17 17 17 17 17 17 17 17 17 17 17 17 17 17 17 17 17 17 17
16 17 17 17 17 17 17 17 17 17 17 17 18 18 18 18 18 18 18 18 18 18 17 17 17 17 17 17 17 17 17 17 17 17 17 17 17 17 17 17 17 17 17
16 16 16 17 17 17 17 17 17 17 17 17 17 18 18 18 18 18 18 18 18 18 17 17 17 17 17 17 17 17 17 17 17 17 17 17 17 17 17 17 16 16 16
15 16 16 16 16 17 17 17 17 17 17 17 17 17 18 18 18 18 18 18 18 18 17 17 17 17 17 17 17 17 17 17 17 17 17 17 17 16 16 16 16 16 16
15 15 16 16 16 16 16 17 17 17 17 17 17 17 17 18 18 18 18 18 18 18 17 17 17 17 17 17 17 17 17 17 17 17 17 16 16 16 16 16 16 16 16
14 15 15 15 16 16 16 16 16 17 17 16 16 17 17 17 17 18 18 18 18 18 17 17 17 17 17 17 17 17 17 17 17 17 16 16 16 16 16 16 16 16 16
14 14 15 15 15 15 16 16 16 16 16 16 16 16 17 17 17 18 18 18 18 18 17 17 17 17 17 17 17 17 17 17 17 17 17 16 16 16 16 16 16 16 16
14 14 14 15 15 15 15 15 16 16 16 16 16 16 16 16 17 17 17 18 18 18 18 17 17 17 17 17 17 17 17 17 17 17 17 17 16 16 16 16 16 16 16
13 14 14 14 14 15 15 15 15 15 15 16 16 16 16 16 16 17 17 17 18 18 17 17 17 17 17 17 17 17 17 17 17 17 17 16 16 16 16 16 16 16 16
13 13 14 14 14 14 14 15 15 15 15 15 15 15 16 16 16 16 17 17 17 18 17 17 17 17 17 17 17 17 17 17 17 16 16 16 16 16 16 16 16 16 16
13 13 14 14 14 14 14 14 15 15 15 15 15 15 15 15 16 16 16 16 17 17 17 17 17 17 17 17 17 17 17 17 16 16 16 16 16 16 16 16 16 16 16
12 13 13 13 14 14 14 14 14 15 15 15 15 15 15 15 15 15 15 16 16 16 16 17 17 17 17 17 17 16 16 16 16 16 16 16 16 16 15 15 15 16 15
12 13 13 13 13 14 14 14 14 14 14 14 14 15 15 15 15 15 15 15 15 15 16 16 16 17 16 16 16 16 16 16 16 16 16 16 15 15 15 15 15 15 15
12 12 13 13 13 13 13 13 14 14 14 14 14 14 14 14 14 14 14 14 15 15 15 15 16 16 16 16 16 16 16 16 16 16 15 15 15 15 15 15 15 14 14
12 12 12 12 13 13 13 13 13 13 14 14 14 14 14 14 14 14 14 14 14 14 14 15 15 15 15 15 15 15 15 15 15 15 15 15 15 14 14 14 14 14 14
11 12 12 12 12 12 13 13 13 13 13 13 13 13 14 14 14 14 14 14 14 14 14 14 14 14 14 15 15 15 15 15 15 15 15 14 14 14 14 14 14 14 14
11 11 11 12 12 12 12 12 12 13 13 13 13 13 13 13 14 14 14 13 14 14 14 14 14 14 14 14 14 14 14 14 14 14 14 14 14 14 14 13 13 13 13
11 11 11 11 11 12 12 12 12 12 12 12 13 13 13 13 13 13 13 13 13 13 13 13 13 13 13 13 14 14 14 13 13 13 13 13 13 13 13 13 13 13 13
10 10 11 11 11 11 11 11 12 12 12 12 12 12 12 13 13 13 13 13 13 13 13 13 13 13 13 13 13 13 13 13 13 13 13 13 12 13 12 12 12 12 12
10 10 10 10 11 11 11 11 11 12 12 12 12 12 12 12 13 13 13 13 13 13 13 13 13 13 13 13 13 13 13 13 12 12 12 12 12 12 12 12 12 12 12
10 10 10 10 10 11 11 11 11 11 11 12 12 12 12 12 12 12 13 13 13 13 13 13 13 13 13 13 13 13 13 12 12 12 12 12 11 11 11 11 11 11 11
10 10 10 10 10 10 10 10 11 11 11 11 11 11 12 12 12 12 12 12 13 13 13 13 13 13 13 13 13 13 13 12 12 11 11 11 11 11 11 11 11 11 11
10 10 10 10 10 10 10 10 10 11 11 11 11 11 11 12 12 12 12 12 12 12 13 13 13 13 13 13 13 12 12 12 11 11 11 11 10 10 10 10 10 10 10
10 10 10 10 10 10 10 10 10 10 11 11 11 11 11 11 12 12 12 12 12 12 12 12 12 12 12 12 12 12 12 12 12 11 11 11 11 10 10 10 10 10 10
Wind_Speed
4 5 5 7 8 9 7 6 6 6 6 6 7 7 6 8 8 8 9 10 10 10 10 10 9 9 8 8 8 9 9 9 9 10 10 10 10 11 10 9 8 8 8
5 4 5 5 6 8 9 7 6 6 5 5 5 6 7 8 9 10 10 11 12 12 11 11 11 10 10 9 9 9 9 9 9 9 9 10 10 10 9 9 8 8 7
7 5 5 6 6 8 7 6 6 5 5 5 6 6 6 8 8 10 11 10 10 12 12 12 11 11 11 11 10 10 10 10 9 9 9 9 9 9 9 8 7 7 6
8 5 5 6 6 6 5 5 4 4 5 5 4 4 4 5 7 9 10 10 10 10 11 12 12 12 11 11 11 11 11 11 10 10 9 9 9 9 8 7 7 6 5
7 5 5 5 5 4 5 6 4 4 4 4 4 4 4 4 5 7 7 10 11 11 11 12 13 13 12 11 11 11 11 11 11 10 10 9 9 8 8 7 6 5 5
6 5 4 4 4 4 5 5 5 4 3 4 4 3 2 3 4 5 7 7 9 10 11 10 10 11 12 12 11 12 12 12 12 11 11 10 10 9 8 7 7 6 5
5 4 4 4 4 5 6 7 5 5 4 3 2 1 2 1 2 3 4 5 6 9 10 10 10 10 10 12 12 12 12 12 12 12 12 11 11 10 9 8 7 6 6
5 4 4 4 4 5 6 7 6 4 4 5 4 2 1 2 2 3 3 5 6 6 8 10 11 11 11 10 11 13 13 12 13 12 12 12 11 11 10 9 8 7 7
5 4 4 4 4 5 6 7 7 8 6 5 5 4 4 5 2 2 3 4 5 5 6 7 10 12 12 11 11 13 13 13 13 12 12 12 11 11 11 10 9 8 7
5 4 4 4 5 4 5 6 7 6 6 5 4 4 3 3 4 2 2 2 4 6 6 6 8 11 12 12 12 13 14 14 13 13 12 12 12 11 11 10 9 8 7
4 4 4 4 4 4 5 6 6 7 6 6 5 4 3 2 2 3 3 2 2 3 5 6 5 7 11 12 12 13 15 15 14 14 13 12 11 11 10 10 9 9 8
4 5 4 4 4 4 5 6 6 7 7 7 6 5 5 4 4 4 3 3 3 3 3 4 5 5 8 10 12 13 15 15 15 14 12 11 10 10 10 9 9 9 9
4 6 5 4 4 4 5 5 5 6 7 8 8 6 6 5 4 4 4 3 2 1 2 2 3 4 7 8 9 12 13 14 14 13 12 10 10 9 9 9 8 8 8
5 5 6 5 4 3 3 3 4 5 5 7 8 7 5 6 5 5 5 5 3 2 2 3 2 3 5 7 9 11 10 13 14 13 11 11 11 10 9 8 8 7 7
5 6 6 5 5 4 3 2 3 4 4 5 6 6 5 5 5 5 4 4 5 5 5 4 3 3 4 6 8 8 9 11 12 12 11 10 10 10 10 9 8 7 6
7 8 7 7 6 5 4 2 1 2 3 4 4 5 5 4 5 4 4 4 4 4 4 3 3 2 3 4 7 7 8 9 10 11 10 9 9 10 9 9 8 7 6
8 8 8 7 7 7 6 4 3 1 2 3 3 5 5 5 5 4 4 4 4 4 4 2 1 1 3 4 4 5 6 6 7 9 9 8 8 8 8 8 7 6 6
8 8 7 7 7 7 7 6 4 3 1 1 2 3 4 4 5 4 4 4 4 4 4 4 2 2 2 4 5 5 4 5 6 8 9 8 8 8 8 7 7 7 6
8 8 8 8 8 7 7 6 5 5 4 3 2 2 3 5 4 4 4 4 4 4 3 4 3 2 2 3 4 4 5 5 7 8 9 8 8 8 8 7 7 7 6
8 8 8 8 8 7 6 6 5 5 5 4 3 2 2 3 4 4 4 4 4 5 5 5 4 3 3 3 4 5 5 4 4 6 9 9 9 9 8 7 7 7 7
8 8 8 8 8 7 6 6 5 5 5 4 4 3 2 2 3 3 4 4 5 4 4 5 4 4 4 4 4 4 6 6 4 4 5 6 7 7 7 7 8 8 8
8 8 8 8 9 7 10 9 7 5 4 4 4 4 3 3 2 2 4 5 6 6 5 4 4 5 5 4 5 6 6 6 4 3 4 4 4 5 6 7 8 9 9
7 7 8 8 8 9 11 11 10 6 6 5 4 3 3 3 3 3 3 4 3 4 5 5 5 5 6 7 8 7 6 4 4 5 5 4 4 5 6 8 10 10 9
6 6 7 8 8 10 13 11 9 6 5 5 5 4 3 3 3 3 4 5 4 3 2 3 4 4 4 6 7 7 8 7 6 4 3 4 3 3 4 7 10 10 10
5 5 5 7 8 9 13 11 9 5 5 5 5 5 3 3 4 5 6 5 5 4 5 7 7 6 8 11 11 9 8 8 5 2 2 3 3 3 2 3 7 10 10
4 4 5 6 7 8 12 12 9 4 5 4 5 5 5 4 5 5 4 5 5 3 4 5 7 8 8 9 10 7 8 8 5 3 3 4 4 3 3 2 3 5 7
Wind_Direction
241 231 231 229 226 224 222 217 217 217 217 222 226 229 235 240 241 240 242 239 232 223 212 201 194 187 181 172 165 159 153 148 147 145 143 140 138 137 132 130 127 127 124
247 238 236 231 227 223 221 216 214 215 216 214 224 226 231 236 236 234 234 234 230 225 218 209 201 194 189 182 175 168 164 158 155 154 151 148 145 143 143 140 139 137 132
252 243 239 236 228 221 216 214 214 212 217 218 230 231 228 228 228 225 224 224 223 222 220 214 207 200 195 190 184 178 174 170 166 164 161 158 156 154 153 152 151 150 147
253 241 238 240 228 215 206 204 202 204 219 219 227 234 228 221 224 221 215 212 210 213 218 216 209 205 203 199 192 186 183 180 177 175 173 170 169 168 167 166 166 164 162
257 239 233 236 226 214 210 214 200 191 210 222 231 235 230 224 220 215 206 205 204 205 210 216 213 208 207 206 202 195 192 190 187 186 183 181 179 179 179 180 181 182 185
271 251 241 237 225 222 219 208 198 194 196 207 236 241 240 234 214 208 208 203 202 204 207 211 212 212 211 209 208 206 202 198 196 194 192 191 191 190 192 194 196 199 202
280 255 251 241 224 222 221 210 195 197 199 165 159 261 311 279 221 217 204 195 200 204 203 206 204 204 211 213 213 212 211 206 203 203 201 199 199 199 203 203 205 208 210
287 267 241 238 228 226 225 215 196 185 192 177 168 158 220 286 271 231 204 206 207 198 203 207 203 201 203 207 213 216 218 215 211 210 209 206 203 204 207 208 211 216 216
294 276 260 245 232 223 225 219 208 193 193 188 183 169 171 208 226 254 218 208 197 196 205 203 205 205 204 206 210 216 219 220 219 217 215 212 209 207 208 210 215 217 218
310 297 277 253 238 229 228 225 216 207 189 187 190 201 183 158 167 201 263 217 200 203 204 206 206 206 206 206 210 213 216 218 220 221 220 217 214 211 211 213 215 215 214
315 312 296 271 251 238 232 226 218 208 200 192 184 181 180 174 176 167 193 205 208 213 205 204 201 201 204 207 210 213 214 216 218 221 224 221 215 212 211 214 214 212 213
322 322 310 289 269 252 238 230 221 210 209 203 197 187 174 173 185 172 172 182 198 209 201 197 199 197 198 204 211 213 213 213 215 218 221 221 216 210 212 212 212 213 216
330 330 327 310 293 274 252 230 221 217 211 206 204 202 193 189 169 163 163 163 173 183 192 208 203 195 196 197 209 212 212 211 211 212 214 215 211 206 209 208 211 214 217
327 330 332 327 317 308 284 242 227 219 210 209 208 199 193 197 186 177 171 162 159 177 205 217 197 196 196 194 206 204 207 206 204 205 208 211 208 203 203 203 205 209 211
344 346 342 343 340 338 327 269 232 226 208 206 206 200 196 194 187 184 175 169 167 185 210 207 197 190 189 191 197 193 196 201 198 196 199 203 202 199 197 198 201 201 199
354 354 356 358 358 353 343 327 270 232 207 203 196 190 193 184 178 182 182 179 177 178 194 195 196 170 174 176 179 178 188 190 188 184 188 193 195 196 195 197 200 196 192
358 -0 360 2 5 5 359 357 350 291 208 197 191 188 190 180 174 178 182 178 180 172 185 171 152 144 160 157 145 155 165 165 172 179 177 176 178 182 188 187 186 183 180
360 0 359 4 6 6 5 9 10 17 64 153 176 178 178 168 172 169 175 180 182 180 174 166 156 148 141 151 141 137 134 139 138 149 154 158 161 163 164 165 165 166 169
359 1 4 6 3 2 4 7 15 29 41 55 82 128 149 153 166 156 162 178 182 179 162 155 155 138 112 128 126 119 116 108 114 118 122 127 133 142 149 153 157 157 161
1 1 1 0 358 359 4 11 23 36 42 45 48 70 110 146 163 161 174 181 173 171 163 155 150 141 130 130 134 134 127 112 111 105 101 102 104 108 120 135 141 145 151
4 359 2 2 0 2 9 16 24 37 40 41 33 31 61 113 160 171 172 177 173 170 161 163 161 153 155 154 158 145 137 123 99 103 104 91 90 85 86 97 110 122 131
0 5 6 4 5 7 11 26 30 33 35 43 38 25 36 49 69 124 151 167 175 174 167 164 164 164 166 156 146 145 139 141 136 129 111 92 84 85 75 86 100 109 114
0 4 4 5 4 360 20 31 36 39 38 38 35 33 45 42 56 79 94 110 126 155 167 162 164 171 167 165 155 151 148 137 123 136 116 93 76 78 66 78 96 103 108
359 1 3 2 2 6 19 29 39 40 40 34 27 29 44 35 51 94 98 88 74 66 112 143 159 170 164 158 155 146 135 113 99 94 99 107 94 80 62 61 79 96 105
1 3 360 5 6 2 15 29 38 31 37 29 22 22 26 42 61 90 101 102 88 67 71 91 103 113 131 139 138 133 136 136 128 112 85 113 125 105 76 49 58 80 96
350 359 6 5 5 0 8 23 29 28 31 23 18 17 25 48 65 81 101 112 107 89 90 88 84 85 97 116 127 142 151 148 134 139 147 122 137 135 114 68 46 65 83
Height
1536 1537 1538 1539 1540 1541 1542 1543 1544 1545 1546 1548 1549 1550 1552 1553 1555 1556 1558 1558 1559 1559 1560 1560 1561 1562 1563 1564 1566 1567 1568 1569 1570 1571 1573 1574 1575 1576 1577 1578 1579 1580 1581
1531 1532 1533 1535 1536 1538 1539 1540 1541 1543 1544 1545 1547 1548 1550 1552 1553 1555 1556 1557 1558 1558 1559 1559 1560 1561 1563 1564 1565 1566 1568 1569 1570 1571 1573 1574 1575 1576 1577 1578 1579 1580 1581
1527 1528 1529 1530 1532 1534 1535 1536 1538 1539 1541 1542 1544 1546 1548 1549 1551 1553 1554 1555 1556 1557 1557 1558 1559 1560 1562 1563 1564 1566 1567 1568 1570 1571 1572 1574 1575 1576 1577 1578 1579 1580 1580
1522 1523 1524 1526 1527 1529 1531 1532 1534 1535 1537 1539 1541 1543 1545 1547 1549 1550 1552 1553 1554 1555 1556 1557 1558 1559 1560 1562 1563 1565 1566 1567 1569 1570 1572 1573 1574 1575 1577 1578 1578 1579 1580
1517 1518 1519 1521 1523 1524 1526 1528 1530 1531 1534 1536 1538 1540 1542 1544 1546 1548 1549 1551 1552 1554 1555 1555 1556 1557 1559 1560 1562 1563 1565 1566 1568 1569 1570 1572 1573 1574 1576 1577 1578 1578 1579
1513 1513 1515 1516 1517 1519 1521 1523 1525 1527 1529 1532 1535 1537 1539 1541 1542 1544 1546 1548 1550 1551 1553 1554 1555 1556 1557 1559 1560 1562 1563 1565 1566 1568 1569 1570 1572 1573 1574 1575 1576 1577 1578
1508 1509 1510 1511 1512 1514 1516 1518 1520 1522 1525 1528 1531 1532 1535 1536 1538 1540 1543 1545 1547 1549 1550 1552 1553 1554 1555 1557 1558 1560 1561 1563 1564 1566 1567 1569 1570 1571 1573 1574 1575 1576 1576
1504 1505 1505 1507 1508 1509 1511 1513 1515 1517 1519 1522 1525 1528 1530 1533 1533 1536 1538 1541 1543 1545 1547 1549 1551 1552 1553 1555 1556 1558 1559 1561 1562 1564 1565 1567 1568 1569 1571 1572 1573 1574 1574
1501 1501 1501 1502 1503 1505 1506 1507 1509 1512 1514 1517 1520 1523 1525 1526 1528 1531 1533 1536 1539 1541 1544 1546 1548 1549 1551 1552 1554 1556 1557 1559 1560 1562 1563 1565 1566 1567 1568 1569 1571 1571 1572
1497 1497 1497 1498 1499 1500 1501 1502 1504 1506 1509 1511 1514 1517 1520 1521 1524 1525 1528 1531 1534 1536 1539 1542 1544 1546 1548 1550 1551 1553 1555 1556 1558 1559 1561 1562 1564 1565 1566 1567 1568 1569 1570
1495 1494 1494 1494 1494 1495 1496 1498 1499 1501 1503 1505 1508 1510 1513 1516 1519 1521 1523 1525 1528 1531 1534 1537 1540 1542 1545 1546 1548 1550 1552 1554 1555 1557 1559 1560 1561 1563 1564 1565 1566 1567 1568
1492 1492 1491 1490 1490 1491 1492 1493 1494 1496 1498 1500 1502 1505 1507 1510 1513 1516 1519 1521 1523 1526 1529 1532 1535 1538 1540 1543 1545 1547 1549 1551 1553 1554 1556 1557 1559 1560 1561 1562 1564 1565 1565
1491 1489 1488 1487 1487 1487 1487 1488 1489 1491 1493 1495 1497 1499 1502 1505 1508 1511 1514 1517 1519 1522 1524 1527 1530 1533 1536 1539 1541 1543 1546 1548 1550 1551 1553 1555 1556 1557 1559 1560 1561 1562 1563
1490 1488 1486 1485 1484 1484 1484 1484 1485 1486 1488 1490 1492 1494 1497 1499 1502 1505 1509 1512 1515 1517 1520 1522 1525 1528 1531 1534 1537 1539 1542 1544 1546 1548 1550 1552 1553 1554 1556 1557 1558 1559 1560
1489 1487 1485 1484 1483 1482 1481 1481 1481 1482 1484 1485 1487 1489 1492 1494 1497 1500 1503 1507 1511 1512 1515 1517 1520 1523 1526 1530 1532 1535 1537 1540 1542 1544 1546 1548 1550 1551 1553 1554 1555 1556 1558
1489 1487 1485 1483 1481 1480 1480 1479 1479 1479 1480 1482 1484 1486 1488 1490 1492 1495 1498 1501 1504 1508 1510 1513 1516 1519 1522 1525 1528 1531 1533 1536 1538 1540 1542 1544 1546 1547 1549 1550 1552 1553 1555
1489 1487 1484 1483 1481 1480 1478 1477 1477 1477 1478 1479 1481 1482 1484 1487 1489 1491 1494 1496 1499 1503 1506 1508 1512 1514 1517 1520 1523 1526 1529 1531 1534 1536 1538 1540 1542 1544 1545 1547 1548 1550 1551
1490 1488 1485 1483 1482 1480 1478 1477 1475 1475 1476 1477 1478 1480 1482 1484 1486 1488 1491 1493 1495 1498 1501 1504 1507 1510 1513 1516 1519 1522 1525 1527 1530 1532 1535 1537 1538 1540 1542 1543 1545 1546 1548
1492 1489 1487 1484 1482 1481 1479 1478 1476 1475 1475 1476 1477 1478 1480 1482 1484 1485 1488 1490 1492 1495 1497 1500 1503 1506 1509 1512 1516 1518 1521 1524 1527 1529 1531 1533 1535 1537 1539 1540 1542 1543 1544
1494 1491 1488 1486 1484 1482 1481 1480 1478 1477 1476 1476 1477 1478 1479 1481 1482 1484 1486 1488 1490 1492 1494 1497 1500 1503 1506 1509 1513 1515 1518 1521 1523 1526 1528 1530 1532 1534 1536 1537 1538 1540 1541
1495 1493 1490 1488 1486 1484 1482 1481 1480 1479 1478 1477 1478 1478 1479 1480 1482 1483 1485 1486 1488 1490 1492 1494 1497 1500 1503 1506 1509 1512 1515 1518 1521 1523 1525 1528 1530 1531 1533 1534 1536 1537 1538
1497 1495 1492 1490 1488 1486 1484 1483 1481 1480 1480 1479 1479 1479 1479 1480 1481 1483 1484 1486 1487 1489 1490 1492 1494 1497 1500 1503 1507 1509 1512 1515 1518 1522 1524 1526 1528 1529 1531 1533 1534 1535 1536
1499 1497 1494 1492 1489 1488 1486 1485 1483 1482 1481 1481 1480 1480 1480 1481 1482 1483 1484 1485 1486 1488 1489 1491 1493 1496 1498 1501 1504 1507 1510 1513 1515 1519 1522 1524 1526 1528 1530 1531 1533 1534 1535
1501 1498 1496 1494 1492 1489 1488 1486 1485 1484 1483 1482 1482 1481 1481 1481 1482 1483 1484 1485 1486 1487 1488 1491 1493 1495 1498 1501 1503 1506 1509 1512 1515 1518 1521 1523 1525 1527 1529 1531 1532 1533 1534
1502 1500 1498 1496 1493 1491 1490 1488 1487 1486 1485 1483 1483 1482 1482 1483 1483 1484 1484 1485 1486 1487 1489 1491 1493 1495 1497 1500 1502 1505 1508 1511 1513 1516 1519 1522 1524 1527 1529 1530 1531 1532 1533
1504 1501 1499 1497 1495 1493 1492 1490 1489 1488 1487 1485 1484 1484 1484 1484 1484 1485 1486 1487 1487 1488 1490 1491 1493 1495 1497 1500 1502 1505 1508 1510 1513 1516 1518 1521 1523 1525 1528 1530 1531 1531 1532